Tracking 29892 objects as of 21-Nov-2024
HD Live streaming from Space Station
objects crossing your sky now

STARLINK-30927

Track STARLINK-30927 now!
10-day predictions
STARLINK-30927 is classified as:


NORAD ID: 58382
Int'l Code: 2023-178J
Perigee: 481.4 km
Apogee: 483.3 km
Inclination: 53.2 °
Period: 94.1 minutes
Semi major axis: 6853 km
RCS: Unknown
Launch date: November 20, 2023
Source: United States (US)
Launch site: AIR FORCE WESTERN TEST RANGE (AFWTR)
Your satellite tracking list
Your tracking list is empty




NASA's NSSDC Master Catalog

Two Line Element Set (TLE):
1 58382U 23178J   24324.62937820  .00000545  00000-0  30547-4 0  9996
2 58382  53.1608  47.9609 0001406 109.9888 250.1265 15.30197207 57132
Source of the keplerian elements: AFSPC